Regional Weather Roundup
Issued by NWS Portland, ME

Home | Current Version | Previous Version | Text Only | Print | Product List | Glossary On
Versions: 1 2 3 4 5 6 7 8 9 10 11 12 13 14 15 16 17 18 19 20 21 22 23 24 25 26 27 28 29 30 31 32 33 34 35 36 37 38 39 40 41 42 43 44 45 46 47 48 49 50
000
ASUS41 KGYX 181010
RWRGYX
WEATHER ROUNDUP FOR MAINE AND NEW HAMPSHIRE
NATIONAL WEATHER SERVICE GRAY ME
500 AM EST SAT NOV 18 2017

MEZ002-005-006-010-012-015-018-020-021-024-026-027-029-181100-
MAINE

CITY           SKY/WX    TMP DP  RH WIND       PRES   REMARKS
PORTLAND       PTCLDY    23  15  71 SW3       29.95R
SANFORD        PTCLDY    18  16  92 CALM      29.95R
WISCASSET      CLEAR     27  13  55 CALM      29.93F
ROCKLAND       CLEAR     26  15  63 CALM      29.90S
FRYEBURG       PTCLDY    18  17  96 CALM      29.93R
LEWISTONAUBURN CLEAR     24  14  65 W7        29.92F
AUGUSTA        CLEAR     25  12  58 CALM      29.91F
WATERVILLE     CLEAR     24  15  68 W7        29.87F
BANGOR         CLEAR     25  15  66 W6        29.91R
GREENVILLE     NOT AVBL
MILLINOCKET    CLEAR     23  16  74 W8G17     29.88R
HOULTON        CLEAR     20  15  81 W6        29.82R
PRESQUE ISLE   CLEAR     18  14  84 NW12      29.83R WCI   5
FRENCHVILLE    CLOUDY    17  12  80 NW12G21   29.78R WCI   4
CARIBOU        CLEAR     20  14  77 NW10      29.79R WCI   9
$$

NHZ002-005-008-009-011-012-014-181100-
NEW HAMPSHIRE

CITY           SKY/WX    TMP DP  RH WIND       PRES   REMARKS
PORTSMOUTH     PTCLDY    26  13  58 W6        29.94R
ROCHESTER      CLOUDY    22  15  75 CALM      29.93S
NASHUA         CLEAR     22  19  89 CALM      29.97S
MANCHESTER     PTCLDY    25  17  72 CALM      29.96R
CONCORD        CLEAR     22  16  78 CALM      29.97R
LACONIA        CLEAR     25  14  63 SW10      29.94S WCI  15
PLYMOUTH       FAIR      25  13  60 NW9       29.95S
BERLIN         CLOUDY    13  11  92 CALM      29.96R
WHITEFIELD     CLOUDY    12   9  87 CALM      29.97S
JAFFREY        CLEAR     22  19  89 CALM      29.93S
KEENE          CLEAR     18  16  92 S3        29.98S
LEBANON        CLOUDY    19  16  88 CALM      29.97F
MT WASHINGTON  PTCLDY    25 -13  18 NW38        N/A  WCI   6
$$

VTZ005-007-008-181100-
VERMONT

CITY           SKY/WX    TMP DP  RH WIND       PRES   REMARKS
ST JOHNSBURY     N/A     16  14  92 MISG      29.98
MONTPELIER     CLOUDY    15  14  95 CALM      29.97F
BURLINGTON     CLEAR     21  16  81 E3        29.94F
$$

MAZ007-012-024-CTZ003-RIZ002-NYZ038-NYZ072-181100-
SOUTHERN NEW ENGLAND AND NY

CITY           SKY/WX    TMP DP  RH WIND       PRES   REMARKS
BOSTON         CLEAR     32  17  54 SW3       29.98R
WORCESTER      CLEAR     26  15  63 W15       29.94S WCI  14
NANTUCKET      CLEAR     30  19  63 W3        29.97F
PROVIDENCE     CLEAR     28  20  71 W8        30.01R
HARTFORD       MOCLDY    24  18  77 CALM      29.99F
ALBANY         CLOUDY    22  17  81 CALM      29.97F
NEW YORK CITY  PTCLDY    37  20  50 SW3       30.00S
$$

ANZ081-ANZ082-ANZ150-NHZ014-MEZ023>029-181100-
COASTAL MARINE OBSERVATIONS

STATION/POSITION TIME  TEMP    WIND        PRES    WAVE
                       AIR SEA DIR/SP/G            HT/PER
                 (UTC) (F)     (DEG/KT/KT) (MB)    (FT/S)
MOUNT DESERT ROC 1000   34     300/ 28/ 30 1011.2S
MATINICUS ROCK   0900   33     300/ 22/ 24 1012.0R
ISLE OF SHOALS   0900   32     270/  8/ 10 1013.9F
JEFFREYS LEDGE   0936      52                N/A     3/ 4
GEORGES BANK BUO 0850   46 53              1011.3   11/ 8
$$

.............KEY..............
   WCI - WIND CHILL
   TC  - TEMPERATURE IN CELSIUS
   VSB - VISIBILITY IN MILES
   HX  - HEAT INDEX
   FAIR- INDICATES FEW OR NO CLOUDS BELOW 12,000 FT, WITH NO
         SIGNIFICANT WEATHER AND/OR OBSTRUCTIONS TO VISIBILITY.






USA.gov is the U.S. government's official web portal to all federal, state and local government web resources and services.